WD6AWP Weather Reports


Display with metric or nautical units.
time (UTC)temp
F
wind
direction
speed
MPH
gust
MPH
rain 1hr
in
rain 24hr
in
rain mn
in
humidity
%
barometer
mb
20260901020031 72 277 10.0 17.0 0.00 0.00 0.00 82 1012.0
20260901014531 73 283 11.0 18.0 0.00 0.00 0.00 81 1011.9
20260901013031 74 284 6.0 17.0 0.00 0.00 0.00 82 1012.0
20260901011529 74 262 8.0 16.0 0.00 0.00 0.00 81 1012.1
20260901010037 76 265 8.0 14.0 0.00 0.00 0.00 79 1012.1
20260901004526 76 279 10.0 16.0 0.00 0.00 0.00 79 1012.2
20260901003025 76 272 11.0 19.0 0.00 0.00 0.00 79 1012.3
20260901001626 77 281 9.0 18.0 0.00 0.00 0.00 78 1012.3
20260901000032 77 219 10.0 16.0 0.00 0.00 0.00 78 1012.5
20260831234520 78 273 9.0 18.0 0.00 0.00 0.00 77 1012.4
20260831233019 80 207 7.0 13.0 0.00 0.00 0.00 74 1012.4
20260831231519 80 269 8.0 13.0 0.00 0.00 0.00 73 1012.5
20260831230018 79 219 6.0 14.0 0.00 0.00 0.00 74 1012.6
20260831224518 79 227 8.0 13.0 0.00 0.00 0.00 74 1012.7
20260831223023 79 221 6.0 15.0 0.00 0.00 0.00 75 1012.8
20260831221520 79 259 5.0 12.0 0.00 0.00 0.00 75 1013.0
20260831220016 79 243 4.0 12.0 0.00 0.00 0.00 75 1013.0
20260831214515 80 234 6.0 12.0 0.00 0.00 0.00 74 1013.1
20260831213015 79 264 8.0 14.0 0.00 0.00 0.00 75 1013.3
20260831211515 79 261 7.0 14.0 0.00 0.00 0.00 75 1013.5
20260831210028 80 313 7.0 14.0 0.00 0.00 0.00 75 1013.6
20260831204513 80 194 7.0 14.0 0.00 0.00 0.00 75 1013.6
20260831203012 80 235 6.0 11.0 0.00 0.00 0.00 75 1013.6
20260831201511 80 223 6.0 12.0 0.00 0.00 0.00 75 1013.6
20260831200009 80 238 6.0 14.0 0.00 0.00 0.00 75 1013.7
20260831194508 80 260 5.0 13.0 0.00 0.00 0.00 75 1013.6
20260831193019 80 262 5.0 12.0 0.00 0.00 0.00 76 1013.6
20260831191506 80 269 4.0 9.0 0.00 0.00 0.00 76 1013.7
20260831190005 81 270 5.0 13.0 0.00 0.00 0.00 75 1013.9
20260831184504 81 238 7.0 10.0 0.00 0.00 0.00 74 1013.9
20260831183006 81 230 4.0 9.0 0.00 0.00 0.00 74 1013.9
20260831181502 81 262 3.0 8.0 0.00 0.00 0.00 75 1013.9
20260831180104 80 229 3.0 7.0 0.00 0.00 0.00 75 1013.9
20260831174556 79 264 1.0 8.0 0.00 0.00 0.00 77 1013.8
20260831173100 79 263 4.0 10.0 0.00 0.00 0.00 77 1013.9
20260831171556 79 217 3.0 10.0 0.00 0.00 0.00 78 1013.8
20260831170052 79 225 1.0 8.0 0.00 0.00 0.00 77 1013.6
20260831164605 78 228 1.0 8.0 0.00 0.00 0.00 79 1013.5
20260831163045 77 161 1.0 7.0 0.00 0.00 0.00 81 1013.4
20260831161557 76 275 0.0 3.0 0.00 0.00 0.00 83 1013.4
20260831160042 75 275 0.0 4.0 0.00 0.00 0.00 84 1013.4
20260831154533 74 281 0.0 4.0 0.00 0.00 0.00 86 1013.3
20260831153029 73 281 0.0 3.0 0.00 0.00 0.00 88 1013.3
20260831151527 72 281 0.0 0.0 0.00 0.00 0.00 90 1013.2
20260831150023 71 281 0.0 0.0 0.00 0.00 0.00 91 1013.2
20260831144521 70 281 0.0 0.0 0.00 0.00 0.00 93 1013.1
20260831143020 70 281 0.0 0.0 0.00 0.00 0.00 94 1012.9
20260831141518 69 281 0.0 0.0 0.00 0.00 0.00 93 1012.7
20260831140015 69 281 0.0 0.0 0.00 0.00 0.00 93 1012.5
20260831134517 69 281 0.0 0.0 0.00 0.00 0.00 94 1012.3
20260831133013 68 281 0.0 0.0 0.00 0.00 0.00 93 1012.1
20260831131513 68 281 0.0 0.0 0.00 0.00 0.00 93 1012.0
20260831130011 68 281 0.0 0.0 0.00 0.00 0.00 92 1012.0
20260831124509 68 281 0.0 0.0 0.00 0.00 0.00 92 1011.9
20260831123009 69 281 0.0 0.0 0.00 0.00 0.00 92 1011.9
20260831121507 69 281 0.0 0.0 0.00 0.00 0.00 92 1011.8
20260831120010 69 281 0.0 0.0 0.00 0.00 0.00 92 1011.8
20260831114504 69 281 0.0 0.0 0.00 0.00 0.00 91 1011.9
20260831113003 70 281 0.0 0.0 0.00 0.00 0.00 91 1011.9
20260831111503 70 281 0.0 0.0 0.00 0.00 0.00 91 1012.0
20260831110003 70 281 0.0 0.0 0.00 0.00 0.00 91 1012.0
20260831104509 71 281 0.0 0.0 0.00 0.00 0.00 91 1012.0
20260831103006 71 281 0.0 4.0 0.00 0.00 0.00 92 1012.0
20260831101502 71 281 1.0 5.0 0.00 0.00 0.00 92 1012.1
20260831100119 70 281 0.0 3.0 0.00 0.00 0.00 93 1012.0
20260831094600 69 281 0.0 0.0 0.00 0.00 0.00 91 1012.0
20260831093112 70 281 0.0 0.0 0.00 0.00 0.00 91 1012.1
20260831091558 70 281 0.0 0.0 0.00 0.00 0.00 91 1011.9
20260831090116 70 281 0.0 0.0 0.00 0.00 0.00 91 1011.9
20260831084556 70 281 0.0 0.0 0.00 0.00 0.00 91 1011.9
20260831083107 70 281 0.0 0.0 0.00 0.00 0.00 90 1012.0
20260831081600 70 281 0.0 0.0 0.00 0.00 0.00 90 1012.0
20260831080124 71 281 0.0 0.0 0.00 0.00 0.00 90 1012.1
20260831074551 71 281 0.0 0.0 0.00 0.00 0.00 89 1012.2
20260831073050 71 281 0.0 0.0 0.00 0.00 0.00 89 1012.1
20260831071548 71 281 0.0 0.0 0.00 0.00 0.00 90 1012.0
20260831070046 72 281 0.0 0.0 0.00 0.00 0.00 89 1011.9
20260831064545 72 281 0.0 0.0 0.00 0.00 0.00 89 1011.9
20260831063100 72 281 0.0 0.0 0.00 0.00 0.00 89 1011.7
20260831061544 72 281 0.0 4.0 0.00 0.00 0.00 89 1011.7
20260831060045 72 284 0.0 0.0 0.00 0.00 0.00 88 1011.6
20260831054544 73 284 2.0 5.0 0.00 0.00 0.00 88 1011.7
20260831053121 73 283 1.0 7.0 0.00 0.00 0.00 87 1011.8
20260831051542 73 290 1.0 5.0 0.00 0.00 0.00 85 1011.7
20260831050041 73 285 0.0 5.0 0.00 0.00 0.00 85 1011.8
20260831044635 73 280 0.0 0.0 0.00 0.00 0.00 83 1011.7
20260831043041 73 280 0.0 0.0 0.00 0.00 0.00 83 1011.7
20260831041540 74 280 0.0 0.0 0.00 0.00 0.00 83 1011.5
20260831040039 74 280 0.0 4.0 0.00 0.00 0.00 83 1011.2
20260831034539 74 280 2.0 7.0 0.00 0.00 0.00 83 1011.0
20260831033053 74 268 1.0 7.0 0.00 0.00 0.00 82 1010.8
20260831031542 74 277 5.0 11.0 0.00 0.00 0.00 84 1010.6
20260831030038 74 271 6.0 12.0 0.00 0.00 0.00 84 1010.3
20260831024537 74 277 9.0 14.0 0.00 0.00 0.00 85 1010.3
20260831023036 74 257 7.0 17.0 0.00 0.00 0.00 86 1010.2
20260831021535 75 292 9.0 16.0 0.00 0.00 0.00 86 1010.2